GW0915 Weather Reports


time (UTC)temp
C
wind
direction
speed
KPH
gust
KPH
rain 1hr
cm
rain 24hr
cm
rain mn
cm
humidity
%
barometer
mb
20260510120445 8 349 1.6 9.7 0.00 0.03 0.03 69 1010.3
20260510115940 8 348 3.2 8.0 0.00 0.03 0.03 71 1010.2
20260510115438 8 26 0.0 3.2 0.00 0.03 0.03 73 1009.9
20260510114933 8 324 3.2 3.2 0.00 0.03 0.03 74 1010.2
20260510114430 8 7 1.6 4.8 0.00 0.03 0.03 74 1009.8
20260510113926 8 330 0.0 1.6 0.00 0.03 0.03 75 1009.4
20260510113421 8 354 4.8 4.8 0.00 0.03 0.03 76 1009.6
20260510112919 8 337 3.2 3.2 0.00 0.03 0.03 78 1009.4
20260510112417 8 343 1.6 8.0 0.00 0.03 0.03 78 1009.3
20260510111912 8 349 3.2 3.2 0.00 0.03 0.03 79 1009.4
20260510111408 8 357 4.8 4.8 0.00 0.03 0.03 81 1009.3
20260510110904 8 8 0.0 1.6 0.00 0.03 0.03 83 1009.1
20260510110400 8 352 6.4 4.8 0.00 0.03 0.03 83 1009.2
20260510105857 8 342 0.0 1.6 0.00 0.03 0.03 84 1009.0
20260510105351 8 344 3.2 3.2 0.00 0.03 0.03 84 1008.9
20260510104847 8 344 0.0 0.0 0.00 0.03 0.03 84 1008.7
20260510104344 8 344 0.0 0.0 0.00 0.03 0.03 84 1008.5
20260510103840 8 344 1.6 3.2 0.00 0.03 0.03 84 1008.2
20260510103338 8 343 0.0 1.6 0.00 0.03 0.03 84 1008.3
20260510102833 8 343 0.0 0.0 0.00 0.03 0.03 84 1008.2
20260510102329 8 343 0.0 1.6 0.00 0.03 0.03 84 1008.0
20260510101826 8 343 0.0 1.6 0.00 0.03 0.03 83 1007.9
20260510101325 8 343 0.0 0.0 0.00 0.03 0.03 83 1007.8
20260510100820 8 343 0.0 3.2 0.00 0.03 0.03 83 1007.6
20260510100318 8 343 3.2 3.2 0.00 0.03 0.03 83 1007.7
20260510095814 8 339 1.6 1.6 0.00 0.03 0.03 82 1007.5
20260510095309 8 339 1.6 3.2 0.00 0.03 0.03 82 1007.8
20260510094803 9 351 3.2 3.2 0.00 0.03 0.03 83 1007.8
20260510094258 9 353 1.6 3.2 0.00 0.03 0.03 82 1007.7
20260510093754 8 358 4.8 4.8 0.00 0.03 0.03 83 1007.6
20260510093251 9 0 0.0 0.0 0.00 0.03 0.03 84 1007.7
20260510092747 9 0 0.0 0.0 0.00 0.03 0.03 83 1007.3
20260510092243 9 0 0.0 0.0 0.00 0.03 0.03 83 1007.0
20260510091739 9 0 0.0 0.0 0.00 0.03 0.03 83 1007.0
20260510091237 9 0 0.0 0.0 0.00 0.03 0.03 83 1007.0
20260510090732 9 0 0.0 0.0 0.00 0.03 0.03 83 1006.9
20260510090230 9 0 0.0 0.0 0.00 0.03 0.03 82 1006.7
20260510085725 9 0 0.0 0.0 0.00 0.03 0.03 82 1006.7
20260510085220 9 0 0.0 0.0 0.00 0.03 0.03 81 1006.6
20260510084716 8 0 0.0 0.0 0.00 0.03 0.03 82 1006.6
20260510084213 9 0 0.0 0.0 0.00 0.03 0.03 86 1006.6
20260510083710 9 0 0.0 0.0 0.00 0.03 0.03 86 1006.5
20260510083207 10 0 0.0 0.0 0.00 0.03 0.03 84 1006.5
20260510082702 9 0 0.0 0.0 0.00 0.03 0.03 78 1006.4
20260510082159 9 0 0.0 0.0 0.00 0.03 0.03 83 1006.2
20260510081653 10 0 0.0 0.0 0.00 0.03 0.03 81 1006.4
20260510081149 10 0 0.0 0.0 0.00 0.03 0.03 82 1006.1
20260510080649 10 0 0.0 0.0 0.00 0.03 0.03 80 1006.0
20260510080146 10 0 0.0 0.0 0.00 0.03 0.03 77 1006.0
20260510075643 10 0 0.0 0.0 0.00 0.03 0.03 75 1006.0
20260510075140 10 0 0.0 0.0 0.00 0.03 0.03 75 1005.9
20260510074637 10 0 0.0 0.0 0.00 0.03 0.03 75 1005.5
20260510074133 10 0 0.0 0.0 0.00 0.03 0.03 74 1005.6
20260510073629 10 1 1.6 1.6 0.00 0.03 0.03 74 1005.7
20260510073126 10 359 0.0 0.0 0.00 0.03 0.03 74 1005.4
20260510072622 10 359 0.0 0.0 0.00 0.03 0.03 73 1005.6
20260510072119 10 359 0.0 0.0 0.00 0.03 0.03 73 1005.3
20260510071614 10 0 1.6 1.6 0.00 0.03 0.03 72 1005.4
20260510071112 10 358 1.6 3.2 0.00 0.03 0.03 73 1005.3
20260510070609 10 346 1.6 4.8 0.00 0.03 0.03 74 1005.3
20260510070107 10 351 0.0 3.2 0.00 0.03 0.03 73 1005.3
20260510065603 10 351 0.0 1.6 0.00 0.03 0.03 73 1005.2
20260510065059 11 351 1.6 3.2 0.00 0.03 0.03 74 1005.0
20260510064555 10 1 1.6 1.6 0.00 0.03 0.03 75 1004.9
20260510064052 10 341 1.6 3.2 0.00 0.03 0.03 77 1004.8
20260510063549 10 339 1.6 3.2 0.00 0.03 0.03 79 1005.2
20260510063046 10 338 3.2 4.8 0.00 0.03 0.03 80 1004.9
20260510062542 10 8 3.2 3.2 0.00 0.03 0.03 82 1004.8
20260510062037 10 4 1.6 3.2 0.00 0.03 0.03 82 1005.0
20260510061534 10 352 1.6 1.6 0.00 0.03 0.03 84 1005.0
20260510061031 10 324 3.2 3.2 0.00 0.03 0.03 84 1005.1
20260510060527 11 18 3.2 4.8 0.00 0.03 0.03 86 1004.9
20260510060023 11 356 4.8 4.8 0.00 0.03 0.03 86 1005.0
20260510055519 11 18 8.0 12.9 0.00 0.03 0.03 86 1004.8
20260510055018 12 2 11.3 12.9 0.00 0.03 0.03 95 1004.6
20260510054513 12 320 1.6 3.2 0.00 0.03 0.03 96 1004.2
20260510054009 12 220 0.0 0.0 0.00 0.03 0.03 96 1004.0
20260510053503 12 220 0.0 0.0 0.00 0.03 0.03 96 1004.2
20260510053000 12 220 0.0 0.0 0.00 0.03 0.03 96 1004.0
20260510052456 12 220 0.0 0.0 0.00 0.03 0.03 96 1004.0
20260510051953 12 221 0.0 0.0 0.00 0.03 0.03 96 1004.2
20260510051448 12 218 0.0 0.0 0.00 0.03 0.03 96 1004.0
20260510050944 12 216 0.0 0.0 0.00 0.03 0.03 95 1003.7
20260510050442 12 215 0.0 0.0 0.00 0.03 0.03 95 1003.5
20260510045939 12 215 0.0 0.0 0.00 0.03 0.03 94 1003.3
20260510045436 12 215 0.0 0.0 0.00 0.03 0.03 94 1003.3
20260510044933 12 210 0.0 0.0 0.18 0.03 0.03 94 1003.1
20260510044430 12 209 0.0 0.0 0.18 0.03 0.03 93 1003.2
20260510043926 12 209 0.0 0.0 0.00 0.00 0.00 93 1002.9
20260510043422 12 208 0.0 0.0 0.00 0.00 0.00 93 1002.4
20260510042921 12 208 0.0 1.6 0.00 0.00 0.00 93 1002.2
20260510042416 12 208 0.0 0.0 0.00 0.00 0.00 93 1002.5
20260510041912 12 207 0.0 0.0 0.00 0.00 0.00 94 1002.2
20260510041409 12 208 1.6 1.6 0.00 0.00 0.00 94 1002.2
20260510040907 12 207 0.0 1.6 0.00 0.00 0.00 94 1002.2
20260510040404 12 207 0.0 1.6 0.00 0.00 0.00 95 1002.1
20260510035859 12 207 0.0 0.0 0.00 0.64 0.64 94 1002.3
20260510035356 12 207 0.0 1.6 0.00 0.64 0.64 94 1002.3
20260510034851 12 207 0.0 0.0 0.00 0.64 0.64 94 1002.0
20260510034349 12 207 0.0 0.0 0.30 0.64 0.64 93 1002.2
20260510033845 13 208 1.6 1.6 0.30 0.64 0.64 93 1002.2
20260510033342 12 261 1.6 4.8 0.30 0.58 0.58 93 1002.9
20260510032838 12 2 1.6 3.2 0.43 0.58 0.58 93 1001.8
20260510032336 12 237 1.6 3.2 0.13 0.53 0.53 92 1002.5
20260510031831 12 207 1.6 3.2 0.18 0.51 0.51 92 1002.3
20260510031326 12 206 3.2 3.2 0.18 0.51 0.51 92 1001.9
20260510030821 12 234 1.6 3.2 0.00 0.48 0.48 92 1002.4
20260510030318 12 234 0.0 0.0 0.00 0.48 0.48 92 1002.3
20260510025815 12 234 0.0 1.6 0.00 0.48 0.48 92 1002.4
20260510025312 12 234 1.6 1.6 0.00 0.48 0.48 92 1002.3
20260510024808 12 234 0.0 0.0 0.00 0.48 0.48 93 1002.2
20260510024300 12 234 0.0 0.0 0.00 0.48 0.48 93 1002.1
20260510023756 12 234 0.0 1.6 0.00 0.48 0.48 93 1002.3
20260510023253 12 234 0.0 0.0 0.00 0.48 0.48 93 1001.9
20260510022750 12 234 0.0 1.6 0.00 0.48 0.48 93 1002.0
20260510022249 12 278 0.0 3.2 0.18 0.48 0.48 94 1002.4
20260510021749 12 277 0.0 3.2 0.18 0.48 0.48 95 1002.6
20260510021247 12 251 3.2 4.8 0.00 0.46 0.46 96 1002.6
20260510020742 12 252 0.0 0.0 0.00 0.46 0.46 96 1002.1
20260510020237 12 252 0.0 0.0 0.00 0.46 0.46 96 1001.7
20260510015733 12 252 0.0 0.0 0.00 0.46 0.46 96 1001.9
20260510015229 12 252 0.0 0.0 0.00 0.46 0.46 96 1001.8
20260510014724 12 252 0.0 0.0 0.00 0.46 0.46 96 1001.8
20260510014222 12 252 0.0 0.0 0.00 0.46 0.46 96 1001.6
20260510013718 12 252 0.0 0.0 0.00 0.46 0.46 96 1001.7
20260510013213 12 252 0.0 0.0 0.00 0.46 0.46 96 1001.5
20260510012708 12 252 0.0 0.0 0.00 0.46 0.46 96 1001.5
20260510012203 12 252 0.0 0.0 0.00 0.46 0.46 96 1001.5
20260510011658 12 252 1.6 1.6 0.00 0.46 0.46 96 1001.7
20260510011154 12 252 0.0 0.0 0.00 0.46 0.46 95 1001.5
20260510010650 12 252 0.0 0.0 0.00 0.46 0.46 95 1001.6
20260510010148 12 252 0.0 0.0 0.00 0.46 0.46 95 1001.3
20260510005644 12 252 0.0 0.0 0.00 0.46 0.46 95 1001.5
20260510005141 12 252 0.0 0.0 0.00 0.46 0.46 95 1001.4
20260510004639 12 252 0.0 0.0 0.00 0.46 0.46 94 1001.5
20260510004137 12 252 0.0 0.0 0.00 0.46 0.46 94 1001.2
20260510003634 12 252 0.0 0.0 0.00 0.46 0.46 94 1001.3
20260510003129 12 252 0.0 0.0 0.00 0.46 0.46 94 1001.4
20260510002629 13 252 0.0 0.0 0.00 0.46 0.46 94 1001.1
20260510002126 13 252 0.0 0.0 0.00 0.46 0.46 94 1001.4
20260510001623 13 252 0.0 1.6 0.00 0.46 0.46 94 1001.6
20260510001122 13 252 1.6 1.6 0.00 0.46 0.46 94 1001.3
20260510000622 13 252 0.0 0.0 0.00 0.46 0.46 94 1001.3
20260510000120 13 252 0.0 0.0 0.00 0.46 0.46 94 1001.3
20260509235616 13 253 0.0 1.6 0.00 0.46 0.46 94 1001.2
20260509235113 13 252 0.0 3.2 0.00 0.46 0.46 94 1001.2
20260509234608 13 254 0.0 0.0 0.00 0.46 0.46 94 1001.3
20260509234107 13 255 0.0 1.6 0.00 0.46 0.46 95 1001.2
20260509233604 13 256 1.6 3.2 0.00 0.46 0.46 94 1001.2
20260509233101 13 257 0.0 1.6 0.00 0.46 0.46 94 1001.2
20260509232557 13 256 0.0 0.0 0.13 0.46 0.46 94 1001.1
20260509232054 13 257 0.0 0.0 0.30 0.46 0.46 93 1001.2
20260509231551 13 269 1.6 3.2 0.61 0.43 0.43 93 1001.3
20260509231049 13 280 4.8 4.8 0.89 0.41 0.41 92 1001.8
20260509230545 13 273 3.2 9.7 1.07 0.33 0.33 92 1001.8
20260509230043 13 310 4.8 11.3 1.19 0.25 0.25 91 1001.7
20260509225537 13 308 4.8 8.0 0.89 0.15 0.15 89 1000.5
20260509225033 13 316 8.0 14.5 0.30 0.05 0.05 86 1000.5
20260509224529 16 300 9.7 12.9 0.00 0.00 0.00 75 1000.4
20260509224026 20 318 8.0 9.7 0.00 0.00 0.00 49 999.8
20260509223523 20 307 4.8 8.0 0.00 0.00 0.00 48 999.1
20260509223021 20 261 3.2 8.0 0.00 0.00 0.00 52 998.7
20260509222516 20 269 3.2 3.2 0.00 0.00 0.00 51 998.6
20260509222012 20 227 1.6 3.2 0.00 0.00 0.00 50 998.5
20260509221508 20 238 3.2 3.2 0.00 0.00 0.00 49 998.8
20260509221004 20 222 3.2 8.0 0.00 0.00 0.00 49 998.6
20260509220501 20 25 3.2 3.2 0.00 0.00 0.00 49 998.9
20260509215956 20 265 3.2 3.2 0.00 0.00 0.00 52 998.6
20260509215452 20 274 1.6 3.2 0.00 0.00 0.00 51 998.7
20260509214950 20 252 4.8 4.8 0.00 0.00 0.00 50 998.7
20260509214447 20 236 4.8 9.7 0.00 0.00 0.00 49 998.7
20260509213944 20 217 4.8 4.8 0.00 0.00 0.00 49 998.2
20260509213439 20 243 1.6 3.2 0.00 0.00 0.00 49 998.3
20260509212937 20 258 1.6 8.0 0.00 0.00 0.00 51 998.6
20260509212435 20 234 3.2 8.0 0.00 0.00 0.00 49 998.2
20260509211930 21 228 4.8 8.0 0.00 0.00 0.00 48 998.3
20260509211426 21 225 3.2 3.2 0.00 0.00 0.00 51 998.5
20260509210923 21 246 1.6 3.2 0.00 0.00 0.00 50 998.5
20260509210420 21 226 3.2 4.8 0.00 0.00 0.00 49 998.6
20260509205915 21 254 6.4 8.0 0.00 0.00 0.00 50 998.8
20260509205415 20 242 4.8 4.8 0.00 0.00 0.00 52 998.9
20260509204912 21 110 4.8 9.7 0.00 0.00 0.00 51 999.0
20260509204408 21 250 4.8 4.8 0.00 0.00 0.00 53 999.0
20260509203904 21 161 4.8 4.8 0.00 0.00 0.00 52 999.1
20260509203401 21 231 3.2 4.8 0.00 0.00 0.00 52 999.2
20260509202858 21 274 6.4 9.7 0.00 0.00 0.00 52 999.0
20260509202354 21 206 1.6 4.8 0.00 0.00 0.00 52 999.5
20260509201849 21 136 1.6 3.2 0.00 0.00 0.00 52 999.5
20260509201345 20 260 3.2 3.2 0.00 0.00 0.00 52 999.5
20260509200842 21 229 1.6 4.8 0.00 0.00 0.00 52 999.7
20260509200336 21 230 1.6 8.0 0.00 0.00 0.00 52 999.7
20260509195834 20 256 4.8 4.8 0.00 0.00 0.00 51 999.7
20260509195334 21 233 3.2 8.0 0.00 0.00 0.00 50 999.7
20260509194833 21 257 1.6 9.7 0.00 0.00 0.00 48 999.6
20260509194330 21 240 3.2 4.8 0.00 0.00 0.00 49 999.9
20260509193827 21 240 1.6 3.2 0.00 0.00 0.00 49 1000.1
20260509193321 21 256 1.6 8.0 0.00 0.00 0.00 53 999.9
20260509192817 20 343 3.2 4.8 0.00 0.00 0.00 52 1000.0
20260509192314 21 237 6.4 8.0 0.00 0.00 0.00 52 1000.3
20260509191808 20 259 4.8 4.8 0.00 0.00 0.00 52 1000.4
20260509191305 20 127 4.8 8.0 0.00 0.00 0.00 52 1000.2
20260509190801 20 232 1.6 3.2 0.00 0.00 0.00 52 1000.4
20260509190258 20 252 4.8 8.0 0.00 0.00 0.00 52 1000.5
20260509185755 20 250 4.8 8.0 0.00 0.00 0.00 53 1000.6
20260509185251 20 246 4.8 9.7 0.00 0.00 0.00 53 1000.5
20260509184749 20 43 1.6 4.8 0.00 0.00 0.00 54 1000.5
20260509184247 20 241 3.2 4.8 0.00 0.00 0.00 53 1000.7
20260509183743 19 252 4.8 4.8 0.00 0.00 0.00 54 1000.8
20260509183238 19 242 1.6 8.0 0.00 0.00 0.00 55 1000.8
20260509182734 19 236 3.2 4.8 0.00 0.00 0.00 55 1000.8
20260509182231 19 259 0.0 8.0 0.00 0.00 0.00 55 1000.6
20260509181729 19 233 3.2 8.0 0.00 0.00 0.00 56 1000.9
20260509181226 19 270 1.6 4.8 0.00 0.00 0.00 55 1000.6
20260509180723 20 248 4.8 8.0 0.00 0.00 0.00 52 1000.7
20260509180220 20 247 1.6 8.0 0.00 0.00 0.00 53 1000.5
20260509175716 20 127 1.6 4.8 0.00 0.00 0.00 53 1000.8
20260509175212 20 333 3.2 4.8 0.00 0.00 0.00 53 1000.5
20260509174708 20 318 3.2 4.8 0.00 0.00 0.00 55 1000.6
20260509174203 19 260 1.6 8.0 0.00 0.00 0.00 55 1000.9
20260509173700 19 246 4.8 8.0 0.00 0.00 0.00 57 1001.1
20260509173155 18 214 4.8 8.0 0.00 0.00 0.00 56 1001.1
20260509172652 18 252 6.4 9.7 0.00 0.00 0.00 57 1000.9
20260509172148 18 259 3.2 4.8 0.00 0.00 0.00 58 1001.2
20260509171643 19 197 1.6 4.8 0.00 0.00 0.00 57 1001.0
20260509171140 19 7 3.2 4.8 0.00 0.00 0.00 54 1001.0
20260509170637 19 259 3.2 3.2 0.00 0.00 0.00 55 1000.9
20260509170133 19 252 3.2 4.8 0.00 0.00 0.00 56 1000.9
20260509165631 18 128 1.6 8.0 0.00 0.00 0.00 57 1001.0
20260509165127 18 265 3.2 3.2 0.00 0.00 0.00 59 1001.0
20260509164623 18 287 3.2 4.8 0.00 0.00 0.00 58 1001.0
20260509164119 18 274 1.6 3.2 0.00 0.00 0.00 59 1001.1
20260509163617 18 245 3.2 4.8 0.00 0.00 0.00 59 1001.0
20260509163112 18 205 3.2 3.2 0.00 0.00 0.00 58 1001.0
20260509162610 18 273 1.6 3.2 0.00 0.00 0.00 60 1001.0
20260509162105 17 243 3.2 3.2 0.00 0.00 0.00 64 1001.3
20260509161557 17 260 3.2 3.2 0.00 0.00 0.00 61 1001.3
20260509161056 17 252 3.2 3.2 0.00 0.00 0.00 62 1001.3
20260509160553 17 243 1.6 3.2 0.00 0.00 0.00 62 1001.4
20260509160048 17 246 1.6 3.2 0.00 0.00 0.00 66 1001.6
20260509155545 17 143 3.2 3.2 0.00 0.00 0.00 63 1001.6
20260509155041 18 279 3.2 3.2 0.00 0.00 0.00 66 1001.6
20260509154537 17 264 3.2 3.2 0.00 0.00 0.00 63 1001.5
20260509154035 17 250 1.6 4.8 0.00 0.00 0.00 68 1001.6
20260509153532 17 267 3.2 3.2 0.00 0.00 0.00 68 1001.9
20260509153029 17 260 4.8 4.8 0.00 0.00 0.00 67 1001.6
20260509152524 17 265 1.6 8.0 0.00 0.00 0.00 67 1001.8
20260509152021 17 238 3.2 4.8 0.00 0.00 0.00 71 1001.5
20260509151518 16 213 1.6 4.8 0.00 0.00 0.00 69 1001.6
20260509151016 16 291 1.6 4.8 0.00 0.00 0.00 71 1001.5
20260509150513 16 268 1.6 3.2 0.00 0.00 0.00 75 1001.5
20260509150012 15 265 0.0 1.6 0.00 0.00 0.00 78 1001.6
20260509145507 15 265 1.6 4.8 0.00 0.00 0.00 79 1001.4
20260509145002 15 258 4.8 4.8 0.00 0.00 0.00 79 1001.7
20260509144459 15 232 0.0 1.6 0.00 0.00 0.00 83 1001.5
20260509143956 14 279 1.6 1.6 0.00 0.00 0.00 83 1001.6
20260509143453 15 250 4.8 4.8 0.00 0.00 0.00 84 1001.8
20260509142950 14 242 1.6 3.2 0.00 0.00 0.00 84 1001.5
20260509142446 14 155 0.0 0.0 0.00 0.00 0.00 84 1001.7
20260509141942 13 210 0.0 1.6 0.00 0.00 0.00 86 1001.6
20260509141438 13 220 0.0 0.0 0.00 0.00 0.00 88 1001.4
20260509140935 13 221 0.0 1.6 0.00 0.00 0.00 88 1001.7
20260509140431 13 218 0.0 3.2 0.00 0.00 0.00 88 1001.7
20260509135930 13 102 1.6 4.8 0.00 0.00 0.00 88 1001.9
20260509135427 13 238 1.6 3.2 0.00 0.00 0.00 88 1001.8
20260509134925 13 237 1.6 3.2 0.00 0.00 0.00 88 1001.7
20260509134422 13 237 0.0 3.2 0.00 0.00 0.00 87 1001.6
20260509133919 13 237 3.2 3.2 0.00 0.00 0.00 87 1001.6
20260509133415 13 228 3.2 3.2 0.00 0.00 0.00 88 1001.6
20260509132914 13 235 1.6 4.8 0.00 0.00 0.00 87 1001.8
20260509132412 14 226 1.6 3.2 0.00 0.00 0.00 87 1001.8
20260509131908 14 225 0.0 1.6 0.00 0.00 0.00 86 1001.8
20260509131406 13 212 3.2 3.2 0.00 0.00 0.00 90 1001.6
20260509130902 13 212 1.6 3.2 0.00 0.00 0.00 91 1001.6
20260509130357 12 194 0.0 1.6 0.00 0.00 0.00 92 1001.7
20260509125855 12 196 0.0 0.0 0.00 0.00 0.00 93 1001.7
20260509125351 12 196 0.0 1.6 0.00 0.00 0.00 93 1001.9
20260509124847 12 182 0.0 0.0 0.00 0.00 0.00 93 1001.8
20260509124344 12 151 1.6 1.6 0.00 0.00 0.00 93 1001.8
20260509123842 12 153 0.0 0.0 0.00 0.00 0.00 94 1001.6
20260509123339 12 153 0.0 1.6 0.00 0.00 0.00 94 1001.7
20260509122835 12 153 0.0 1.6 0.00 0.00 0.00 94 1002.1
20260509122332 12 153 0.0 1.6 0.00 0.00 0.00 94 1002.1
20260509121829 12 154 0.0 0.0 0.00 0.00 0.00 94 1002.1
20260509121326 12 154 0.0 0.0 0.00 0.00 0.00 95 1002.1
20260509120824 12 154 0.0 0.0 0.00 0.00 0.00 95 1002.2